<?xml version="1.0"?>
<gpx xmlns="http://www.topografix.com/GPX/1/1" xmlns:xsi="http://www.w3.org/2001/XMLSchema-instance" version="1.1" creator="GPX RubyGem 1.0.0 -- http://dougfales.github.io/gpx/" xsi:schemaLocation="http://www.topografix.com/GPX/1/1 http://www.topografix.com/GPX/1/1/gpx.xsd">
  <metadata>
    <name/>
    <time>2026-05-09T23:09:12+00:00</time>
    <bound minlat="90.0" minlon="180.0" maxlat="-90.0" maxlon="-180.0"/>
  </metadata>
  <trk>
    <name/>
    <trkseg>
      <trkpt lat="49.224136" lon="7.908868">
        <time>1970-01-01T00:00:00+00:00</time>
        <ele>205.0</ele>
      </trkpt>
      <trkpt lat="49.224187" lon="7.909224">
        <time>1970-01-01T00:00:00+00:00</time>
        <ele>203.0</ele>
      </trkpt>
      <trkpt lat="49.224204" lon="7.909582">
        <time>1970-01-01T00:00:00+00:00</time>
        <ele>203.0</ele>
      </trkpt>
      <trkpt lat="49.224074" lon="7.909518">
        <time>1970-01-01T00:00:00+00:00</time>
        <ele>207.0</ele>
      </trkpt>
      <trkpt lat="49.224074" lon="7.90977">
        <time>1970-01-01T00:00:00+00:00</time>
        <ele>207.0</ele>
      </trkpt>
      <trkpt lat="49.224035" lon="7.909936">
        <time>1970-01-01T00:00:00+00:00</time>
        <ele>208.0</ele>
      </trkpt>
      <trkpt lat="49.224082" lon="7.910485">
        <time>1970-01-01T00:00:00+00:00</time>
        <ele>207.0</ele>
      </trkpt>
      <trkpt lat="49.224112" lon="7.911269">
        <time>1970-01-01T00:00:00+00:00</time>
        <ele>208.0</ele>
      </trkpt>
      <trkpt lat="49.224165" lon="7.911072">
        <time>1970-01-01T00:00:00+00:00</time>
        <ele>206.0</ele>
      </trkpt>
      <trkpt lat="49.224274" lon="7.91069">
        <time>1970-01-01T00:00:00+00:00</time>
        <ele>203.0</ele>
      </trkpt>
      <trkpt lat="49.224413" lon="7.910524">
        <time>1970-01-01T00:00:00+00:00</time>
        <ele>201.0</ele>
      </trkpt>
      <trkpt lat="49.224728" lon="7.910415">
        <time>1970-01-01T00:00:00+00:00</time>
        <ele>208.0</ele>
      </trkpt>
      <trkpt lat="49.224765" lon="7.910342">
        <time>1970-01-01T00:00:00+00:00</time>
        <ele>211.0</ele>
      </trkpt>
      <trkpt lat="49.22481" lon="7.910634">
        <time>1970-01-01T00:00:00+00:00</time>
        <ele>209.0</ele>
      </trkpt>
      <trkpt lat="49.224815" lon="7.910997">
        <time>1970-01-01T00:00:00+00:00</time>
        <ele>205.0</ele>
      </trkpt>
      <trkpt lat="49.224732" lon="7.911606">
        <time>1970-01-01T00:00:00+00:00</time>
        <ele>201.0</ele>
      </trkpt>
      <trkpt lat="49.224781" lon="7.91226">
        <time>1970-01-01T00:00:00+00:00</time>
        <ele>203.0</ele>
      </trkpt>
      <trkpt lat="49.224778" lon="7.913357">
        <time>1970-01-01T00:00:00+00:00</time>
        <ele>202.0</ele>
      </trkpt>
      <trkpt lat="49.224801" lon="7.913522">
        <time>1970-01-01T00:00:00+00:00</time>
        <ele>203.0</ele>
      </trkpt>
      <trkpt lat="49.224866" lon="7.913629">
        <time>1970-01-01T00:00:00+00:00</time>
        <ele>203.0</ele>
      </trkpt>
      <trkpt lat="49.225065" lon="7.913675">
        <time>1970-01-01T00:00:00+00:00</time>
        <ele>208.0</ele>
      </trkpt>
      <trkpt lat="49.225346" lon="7.913834">
        <time>1970-01-01T00:00:00+00:00</time>
        <ele>218.0</ele>
      </trkpt>
      <trkpt lat="49.225799" lon="7.914026">
        <time>1970-01-01T00:00:00+00:00</time>
        <ele>215.0</ele>
      </trkpt>
      <trkpt lat="49.225989" lon="7.914001">
        <time>1970-01-01T00:00:00+00:00</time>
        <ele>218.0</ele>
      </trkpt>
      <trkpt lat="49.227197" lon="7.913621">
        <time>1970-01-01T00:00:00+00:00</time>
        <ele>237.0</ele>
      </trkpt>
      <trkpt lat="49.228163" lon="7.913138">
        <time>1970-01-01T00:00:00+00:00</time>
        <ele>244.0</ele>
      </trkpt>
      <trkpt lat="49.22858" lon="7.913103">
        <time>1970-01-01T00:00:00+00:00</time>
        <ele>242.0</ele>
      </trkpt>
      <trkpt lat="49.229058" lon="7.913197">
        <time>1970-01-01T00:00:00+00:00</time>
        <ele>237.0</ele>
      </trkpt>
      <trkpt lat="49.229462" lon="7.912609">
        <time>1970-01-01T00:00:00+00:00</time>
        <ele>257.0</ele>
      </trkpt>
      <trkpt lat="49.230153" lon="7.911873">
        <time>1970-01-01T00:00:00+00:00</time>
        <ele>271.0</ele>
      </trkpt>
      <trkpt lat="49.229415" lon="7.911861">
        <time>1970-01-01T00:00:00+00:00</time>
        <ele>293.0</ele>
      </trkpt>
      <trkpt lat="49.229046" lon="7.91168">
        <time>1970-01-01T00:00:00+00:00</time>
        <ele>303.0</ele>
      </trkpt>
      <trkpt lat="49.229501" lon="7.911568">
        <time>1970-01-01T00:00:00+00:00</time>
        <ele>306.0</ele>
      </trkpt>
      <trkpt lat="49.229881" lon="7.911202">
        <time>1970-01-01T00:00:00+00:00</time>
        <ele>310.0</ele>
      </trkpt>
      <trkpt lat="49.230101" lon="7.91074">
        <time>1970-01-01T00:00:00+00:00</time>
        <ele>307.0</ele>
      </trkpt>
      <trkpt lat="49.230395" lon="7.909811">
        <time>1970-01-01T00:00:00+00:00</time>
        <ele>319.0</ele>
      </trkpt>
      <trkpt lat="49.230687" lon="7.909314">
        <time>1970-01-01T00:00:00+00:00</time>
        <ele>330.0</ele>
      </trkpt>
      <trkpt lat="49.230813" lon="7.909211">
        <time>1970-01-01T00:00:00+00:00</time>
        <ele>330.0</ele>
      </trkpt>
      <trkpt lat="49.230915" lon="7.909104">
        <time>1970-01-01T00:00:00+00:00</time>
        <ele>333.0</ele>
      </trkpt>
      <trkpt lat="49.230921" lon="7.908988">
        <time>1970-01-01T00:00:00+00:00</time>
        <ele>339.0</ele>
      </trkpt>
      <trkpt lat="49.230864" lon="7.908898">
        <time>1970-01-01T00:00:00+00:00</time>
        <ele>345.0</ele>
      </trkpt>
      <trkpt lat="49.23078" lon="7.908896">
        <time>1970-01-01T00:00:00+00:00</time>
        <ele>347.0</ele>
      </trkpt>
      <trkpt lat="49.230516" lon="7.909099">
        <time>1970-01-01T00:00:00+00:00</time>
        <ele>343.0</ele>
      </trkpt>
      <trkpt lat="49.230287" lon="7.909355">
        <time>1970-01-01T00:00:00+00:00</time>
        <ele>339.0</ele>
      </trkpt>
      <trkpt lat="49.230012" lon="7.909781">
        <time>1970-01-01T00:00:00+00:00</time>
        <ele>334.0</ele>
      </trkpt>
      <trkpt lat="49.229676" lon="7.91057">
        <time>1970-01-01T00:00:00+00:00</time>
        <ele>337.0</ele>
      </trkpt>
      <trkpt lat="49.229505" lon="7.910788">
        <time>1970-01-01T00:00:00+00:00</time>
        <ele>335.0</ele>
      </trkpt>
      <trkpt lat="49.229228" lon="7.910813">
        <time>1970-01-01T00:00:00+00:00</time>
        <ele>335.0</ele>
      </trkpt>
      <trkpt lat="49.228977" lon="7.910722">
        <time>1970-01-01T00:00:00+00:00</time>
        <ele>338.0</ele>
      </trkpt>
      <trkpt lat="49.228422" lon="7.910306">
        <time>1970-01-01T00:00:00+00:00</time>
        <ele>359.0</ele>
      </trkpt>
      <trkpt lat="49.228182" lon="7.910308">
        <time>1970-01-01T00:00:00+00:00</time>
        <ele>355.0</ele>
      </trkpt>
      <trkpt lat="49.227732" lon="7.910426">
        <time>1970-01-01T00:00:00+00:00</time>
        <ele>341.0</ele>
      </trkpt>
      <trkpt lat="49.22759" lon="7.910259">
        <time>1970-01-01T00:00:00+00:00</time>
        <ele>336.0</ele>
      </trkpt>
      <trkpt lat="49.227493" lon="7.908511">
        <time>1970-01-01T00:00:00+00:00</time>
        <ele>325.0</ele>
      </trkpt>
      <trkpt lat="49.227512" lon="7.907955">
        <time>1970-01-01T00:00:00+00:00</time>
        <ele>322.0</ele>
      </trkpt>
      <trkpt lat="49.227335" lon="7.908011">
        <time>1970-01-01T00:00:00+00:00</time>
        <ele>319.0</ele>
      </trkpt>
      <trkpt lat="49.227012" lon="7.908323">
        <time>1970-01-01T00:00:00+00:00</time>
        <ele>312.0</ele>
      </trkpt>
      <trkpt lat="49.226428" lon="7.908194">
        <time>1970-01-01T00:00:00+00:00</time>
        <ele>303.0</ele>
      </trkpt>
      <trkpt lat="49.226161" lon="7.90843">
        <time>1970-01-01T00:00:00+00:00</time>
        <ele>297.0</ele>
      </trkpt>
      <trkpt lat="49.225926" lon="7.908367">
        <time>1970-01-01T00:00:00+00:00</time>
        <ele>279.0</ele>
      </trkpt>
      <trkpt lat="49.225926" lon="7.908367">
        <time>1970-01-01T00:00:00+00:00</time>
        <ele>279.0</ele>
      </trkpt>
      <trkpt lat="49.226161" lon="7.90843">
        <time>1970-01-01T00:00:00+00:00</time>
        <ele>297.0</ele>
      </trkpt>
      <trkpt lat="49.226428" lon="7.908194">
        <time>1970-01-01T00:00:00+00:00</time>
        <ele>303.0</ele>
      </trkpt>
      <trkpt lat="49.227012" lon="7.908323">
        <time>1970-01-01T00:00:00+00:00</time>
        <ele>312.0</ele>
      </trkpt>
      <trkpt lat="49.227335" lon="7.908011">
        <time>1970-01-01T00:00:00+00:00</time>
        <ele>319.0</ele>
      </trkpt>
      <trkpt lat="49.227512" lon="7.907955">
        <time>1970-01-01T00:00:00+00:00</time>
        <ele>322.0</ele>
      </trkpt>
      <trkpt lat="49.227493" lon="7.908511">
        <time>1970-01-01T00:00:00+00:00</time>
        <ele>325.0</ele>
      </trkpt>
      <trkpt lat="49.22759" lon="7.910259">
        <time>1970-01-01T00:00:00+00:00</time>
        <ele>336.0</ele>
      </trkpt>
      <trkpt lat="49.227732" lon="7.910426">
        <time>1970-01-01T00:00:00+00:00</time>
        <ele>341.0</ele>
      </trkpt>
      <trkpt lat="49.228182" lon="7.910308">
        <time>1970-01-01T00:00:00+00:00</time>
        <ele>355.0</ele>
      </trkpt>
      <trkpt lat="49.228422" lon="7.910306">
        <time>1970-01-01T00:00:00+00:00</time>
        <ele>359.0</ele>
      </trkpt>
      <trkpt lat="49.228977" lon="7.910722">
        <time>1970-01-01T00:00:00+00:00</time>
        <ele>338.0</ele>
      </trkpt>
      <trkpt lat="49.229228" lon="7.910813">
        <time>1970-01-01T00:00:00+00:00</time>
        <ele>335.0</ele>
      </trkpt>
      <trkpt lat="49.229505" lon="7.910788">
        <time>1970-01-01T00:00:00+00:00</time>
        <ele>335.0</ele>
      </trkpt>
      <trkpt lat="49.229676" lon="7.91057">
        <time>1970-01-01T00:00:00+00:00</time>
        <ele>337.0</ele>
      </trkpt>
      <trkpt lat="49.230012" lon="7.909781">
        <time>1970-01-01T00:00:00+00:00</time>
        <ele>334.0</ele>
      </trkpt>
      <trkpt lat="49.230287" lon="7.909355">
        <time>1970-01-01T00:00:00+00:00</time>
        <ele>339.0</ele>
      </trkpt>
      <trkpt lat="49.230516" lon="7.909099">
        <time>1970-01-01T00:00:00+00:00</time>
        <ele>343.0</ele>
      </trkpt>
      <trkpt lat="49.23078" lon="7.908896">
        <time>1970-01-01T00:00:00+00:00</time>
        <ele>347.0</ele>
      </trkpt>
      <trkpt lat="49.230864" lon="7.908898">
        <time>1970-01-01T00:00:00+00:00</time>
        <ele>345.0</ele>
      </trkpt>
      <trkpt lat="49.230921" lon="7.908988">
        <time>1970-01-01T00:00:00+00:00</time>
        <ele>339.0</ele>
      </trkpt>
      <trkpt lat="49.230915" lon="7.909104">
        <time>1970-01-01T00:00:00+00:00</time>
        <ele>333.0</ele>
      </trkpt>
      <trkpt lat="49.230813" lon="7.909211">
        <time>1970-01-01T00:00:00+00:00</time>
        <ele>330.0</ele>
      </trkpt>
      <trkpt lat="49.230687" lon="7.909314">
        <time>1970-01-01T00:00:00+00:00</time>
        <ele>330.0</ele>
      </trkpt>
      <trkpt lat="49.230395" lon="7.909811">
        <time>1970-01-01T00:00:00+00:00</time>
        <ele>319.0</ele>
      </trkpt>
      <trkpt lat="49.230101" lon="7.91074">
        <time>1970-01-01T00:00:00+00:00</time>
        <ele>307.0</ele>
      </trkpt>
      <trkpt lat="49.229881" lon="7.911202">
        <time>1970-01-01T00:00:00+00:00</time>
        <ele>310.0</ele>
      </trkpt>
      <trkpt lat="49.229501" lon="7.911568">
        <time>1970-01-01T00:00:00+00:00</time>
        <ele>306.0</ele>
      </trkpt>
      <trkpt lat="49.229046" lon="7.91168">
        <time>1970-01-01T00:00:00+00:00</time>
        <ele>303.0</ele>
      </trkpt>
      <trkpt lat="49.228748" lon="7.911706">
        <time>1970-01-01T00:00:00+00:00</time>
        <ele>299.0</ele>
      </trkpt>
      <trkpt lat="49.228487" lon="7.911617">
        <time>1970-01-01T00:00:00+00:00</time>
        <ele>302.0</ele>
      </trkpt>
      <trkpt lat="49.228077" lon="7.911594">
        <time>1970-01-01T00:00:00+00:00</time>
        <ele>309.0</ele>
      </trkpt>
      <trkpt lat="49.227516" lon="7.911996">
        <time>1970-01-01T00:00:00+00:00</time>
        <ele>298.0</ele>
      </trkpt>
      <trkpt lat="49.22723" lon="7.912397">
        <time>1970-01-01T00:00:00+00:00</time>
        <ele>285.0</ele>
      </trkpt>
      <trkpt lat="49.226934" lon="7.912861">
        <time>1970-01-01T00:00:00+00:00</time>
        <ele>278.0</ele>
      </trkpt>
      <trkpt lat="49.226439" lon="7.913147">
        <time>1970-01-01T00:00:00+00:00</time>
        <ele>265.0</ele>
      </trkpt>
      <trkpt lat="49.225767" lon="7.912919">
        <time>1970-01-01T00:00:00+00:00</time>
        <ele>252.0</ele>
      </trkpt>
      <trkpt lat="49.225396" lon="7.911923">
        <time>1970-01-01T00:00:00+00:00</time>
        <ele>236.0</ele>
      </trkpt>
      <trkpt lat="49.22581" lon="7.911001">
        <time>1970-01-01T00:00:00+00:00</time>
        <ele>246.0</ele>
      </trkpt>
      <trkpt lat="49.225896" lon="7.910239">
        <time>1970-01-01T00:00:00+00:00</time>
        <ele>264.0</ele>
      </trkpt>
      <trkpt lat="49.225713" lon="7.910115">
        <time>1970-01-01T00:00:00+00:00</time>
        <ele>258.0</ele>
      </trkpt>
      <trkpt lat="49.225424" lon="7.91014">
        <time>1970-01-01T00:00:00+00:00</time>
        <ele>248.0</ele>
      </trkpt>
      <trkpt lat="49.22513" lon="7.909155">
        <time>1970-01-01T00:00:00+00:00</time>
        <ele>235.0</ele>
      </trkpt>
      <trkpt lat="49.225089" lon="7.908649">
        <time>1970-01-01T00:00:00+00:00</time>
        <ele>230.0</ele>
      </trkpt>
      <trkpt lat="49.225107" lon="7.908116">
        <time>1970-01-01T00:00:00+00:00</time>
        <ele>229.0</ele>
      </trkpt>
      <trkpt lat="49.224633" lon="7.908256">
        <time>1970-01-01T00:00:00+00:00</time>
        <ele>203.0</ele>
      </trkpt>
      <trkpt lat="49.224614" lon="7.908601">
        <time>1970-01-01T00:00:00+00:00</time>
        <ele>204.0</ele>
      </trkpt>
      <trkpt lat="49.224673" lon="7.909393">
        <time>1970-01-01T00:00:00+00:00</time>
        <ele>211.0</ele>
      </trkpt>
      <trkpt lat="49.224765" lon="7.910342">
        <time>1970-01-01T00:00:00+00:00</time>
        <ele>211.0</ele>
      </trkpt>
      <trkpt lat="49.224728" lon="7.910415">
        <time>1970-01-01T00:00:00+00:00</time>
        <ele>208.0</ele>
      </trkpt>
      <trkpt lat="49.224413" lon="7.910524">
        <time>1970-01-01T00:00:00+00:00</time>
        <ele>201.0</ele>
      </trkpt>
      <trkpt lat="49.224274" lon="7.91069">
        <time>1970-01-01T00:00:00+00:00</time>
        <ele>203.0</ele>
      </trkpt>
      <trkpt lat="49.224165" lon="7.911072">
        <time>1970-01-01T00:00:00+00:00</time>
        <ele>206.0</ele>
      </trkpt>
      <trkpt lat="49.224112" lon="7.911269">
        <time>1970-01-01T00:00:00+00:00</time>
        <ele>208.0</ele>
      </trkpt>
      <trkpt lat="49.224082" lon="7.910485">
        <time>1970-01-01T00:00:00+00:00</time>
        <ele>207.0</ele>
      </trkpt>
      <trkpt lat="49.224035" lon="7.909936">
        <time>1970-01-01T00:00:00+00:00</time>
        <ele>208.0</ele>
      </trkpt>
      <trkpt lat="49.224074" lon="7.90977">
        <time>1970-01-01T00:00:00+00:00</time>
        <ele>207.0</ele>
      </trkpt>
      <trkpt lat="49.224074" lon="7.909518">
        <time>1970-01-01T00:00:00+00:00</time>
        <ele>207.0</ele>
      </trkpt>
      <trkpt lat="49.224204" lon="7.909582">
        <time>1970-01-01T00:00:00+00:00</time>
        <ele>203.0</ele>
      </trkpt>
      <trkpt lat="49.224187" lon="7.909224">
        <time>1970-01-01T00:00:00+00:00</time>
        <ele>203.0</ele>
      </trkpt>
      <trkpt lat="49.224136" lon="7.908868">
        <time>1970-01-01T00:00:00+00:00</time>
        <ele>205.0</ele>
      </trkpt>
    </trkseg>
  </trk>
</gpx>
